User: anonymous   Login
Location: Unspecified
(0.0000°N, 0.0000°E)
Time: 18:46:09
(UTC+00:00)
Language:

Mublcom - Orbit

View from above orbital plane
View from above orbital plane
View from above satellite
View from above satellite

Ground track
Ground track

The orbit data is extracted from the following two-line orbital elements,

1 25736U 99026B   17145.82383762 +.00000283 +00000-0 +84937-4 0  9994
2 25736 097.7643 226.6909 0006887 097.9921 262.2056 14.48916078949891
Epoch (UTC): 25 May 2017 19:46:19
Eccentricity: 0.0006887
inclination: 97.7643°
perigee height: 724 km
apogee height: 734 km
right ascension of ascending node: 226.6909°
argument of perigee: 97.9921°
revolutions per day: 14.48916078
mean anomaly at epoch: 262.2056°
orbit number at epoch: 94989

The dashed part of the orbit path shows where the satellite is in the earth's shadow,  

DLR